Location: Fort Worth, Tx
(32.7431°N, 97.3695°W)
Time: 10:14:14
(UTC-04:00)

A-11 Canister half - Pass Details

Date: 13 August 2024
Orbit: 1524 x 1684 km, 47.3° (Epoch: 13 September)

Event Time Altitude Azimuth Distance (km) Brightness Sun altitude
Rises 04:57:29 0° 297° (WNW) 4,939 11.5 -31.7°
Reaches altitude 10° 05:01:04 10° 306° (NW) 3,948 11.1 -31.2°
Maximum altitude 05:10:19 38° 12° (NNE) 2,368 10.3 -29.9°
Drops below altitude 10° 05:19:24 10° 77° (ENE) 3,876 11.8 -28.5°
Sets 05:22:51 0° 86° (E) 4,840 12.3 -28.0°
